Location: �terpigny
(49.8910°N, 2.9249°E)
Time: 18:43:23
(UTC+00:00)

Cosmos 1844 Rocket - Pass Details

Date: 24 October 2021
Orbit: 826 x 843 km, 71.0° (Epoch: 06 December)

Event Time Altitude Azimuth Distance (km) Brightness Sun altitude
Rises 17:19:33 0° 333° (NNW) 3,378 6.1 -7.1°
Reaches altitude 10° 17:22:12 10° 343° (NNW) 2,440 5.2 -7.5°
Maximum altitude 17:27:19 35° 49° (NE) 1,309 3.3 -8.3°
Drops below altitude 10° 17:32:23 10° 114° (ESE) 2,428 4.6 -9.1°
Enters shadow 17:33:48 - 120° (ESE) 2,918 5.0 -9.4°
